CW0146 Weather Reports


Display with metric or nautical units.
time (UTC)temp
F
wind
direction
speed
MPH
gust
MPH
rain 1hr
in
rain 24hr
in
rain mn
in
humidity
%
barometer
mb
20260902035954 87 97 1.0 2.0 0.00 0.00 0.00 60 1015.0
20260902035454 87 98 1.0 2.0 0.00 0.00 0.00 59 1015.0
20260902034955 87 90 1.0 2.0 0.00 0.00 0.00 59 1015.0
20260902034455 87 94 0.0 0.0 0.00 0.00 0.00 59 1015.0
20260902033955 87 155 0.0 1.0 0.00 0.00 0.00 58 1015.0
20260902033455 88 80 1.0 2.0 0.00 0.00 0.00 58 1015.0
20260902032958 88 133 0.0 1.0 0.00 0.00 0.00 57 1015.0
20260902032454 88 109 1.0 3.0 0.00 0.00 0.00 57 1015.0
20260902031954 88 76 0.0 2.0 0.00 0.00 0.00 57 1015.0
20260902031454 88 101 0.0 2.0 0.00 0.00 0.00 57 1015.0
20260902030955 88 108 0.0 2.0 0.00 0.00 0.00 57 1015.0
20260902030455 88 94 0.0 2.0 0.00 0.00 0.00 56 1014.0
20260902025954 88 142 1.0 2.0 0.00 0.00 0.00 56 1014.0
20260902025455 89 104 0.0 2.0 0.00 0.00 0.00 56 1014.0
20260902024954 89 92 1.0 2.0 0.00 0.00 0.00 55 1014.0
20260902024455 89 95 1.0 2.0 0.00 0.00 0.00 55 1014.0
20260902023954 89 101 1.0 2.0 0.00 0.00 0.00 54 1014.0
20260902023456 89 127 1.0 2.0 0.00 0.00 0.00 54 1014.0
20260902022955 89 128 0.0 1.0 0.00 0.00 0.00 54 1014.0
20260902022455 89 134 1.0 2.0 0.00 0.00 0.00 53 1014.0
20260902021955 89 102 1.0 3.0 0.00 0.00 0.00 53 1014.0
20260902021455 89 100 1.0 3.0 0.00 0.00 0.00 52 1014.0
20260902020956 90 118 1.0 2.0 0.00 0.00 0.00 52 1014.0
20260902020454 90 81 0.0 1.0 0.00 0.00 0.00 51 1013.0
20260902015955 90 141 0.0 1.0 0.00 0.00 0.00 51 1013.0
20260902015455 90 116 1.0 2.0 0.00 0.00 0.00 50 1013.0
20260902014955 91 147 0.0 1.0 0.00 0.00 0.00 50 1013.0
20260902014456 91 108 0.0 1.0 0.00 0.00 0.00 49 1013.0
20260902013954 91 105 1.0 2.0 0.00 0.00 0.00 49 1013.0
20260902013457 91 120 1.0 3.0 0.00 0.00 0.00 48 1013.0
20260902012954 92 130 2.0 3.0 0.00 0.00 0.00 48 1013.0
20260902012454 92 125 1.0 2.0 0.00 0.00 0.00 47 1013.0
20260902011955 92 101 1.0 2.0 0.00 0.00 0.00 47 1013.0
20260902011454 93 98 2.0 2.0 0.00 0.00 0.00 46 1013.0
20260902010955 93 95 2.0 4.0 0.00 0.00 0.00 45 1013.0
20260902010454 93 95 2.0 3.0 0.00 0.00 0.00 44 1013.0
20260902005954 94 94 2.0 3.0 0.00 0.00 0.00 43 1013.0
20260902005455 94 110 1.0 2.0 0.00 0.00 0.00 43 1013.0
20260902004957 94 96 1.0 2.0 0.00 0.00 0.00 43 1013.0
20260902004454 94 118 1.0 2.0 0.00 0.00 0.00 42 1013.0
20260902003956 94 107 2.0 2.0 0.00 0.00 0.00 42 1013.0
20260902003455 95 87 2.0 3.0 0.00 0.00 0.00 42 1013.0
20260902002955 95 140 1.0 1.0 0.00 0.00 0.00 43 1013.0
20260902002455 95 89 1.0 2.0 0.00 0.00 0.00 42 1013.0
20260902001954 95 93 1.0 2.0 0.00 0.00 0.00 42 1013.0
20260902001455 96 109 1.0 2.0 0.00 0.00 0.00 42 1013.0
20260902000955 96 92 2.0 3.0 0.00 0.00 0.00 42 1013.0
20260902000454 96 76 2.0 3.0 0.00 0.00 0.00 41 1013.0
20260901235955 97 80 2.0 4.0 0.00 0.00 0.00 41 1013.0
20260901235454 97 93 1.0 2.0 0.00 0.00 0.00 41 1013.0
20260901234954 97 87 1.0 2.0 0.00 0.00 0.00 40 1013.0
20260901234455 98 97 2.0 3.0 0.00 0.00 0.00 39 1013.0
20260901233956 98 90 1.0 3.0 0.00 0.00 0.00 38 1013.0
20260901233454 97 106 1.0 2.0 0.00 0.00 0.00 38 1013.0
20260901232954 98 102 1.0 2.0 0.00 0.00 0.00 37 1013.0
20260901232454 97 88 1.0 3.0 0.00 0.00 0.00 37 1013.0
20260901231957 97 118 1.0 2.0 0.00 0.00 0.00 38 1013.0
20260901231454 97 91 1.0 1.0 0.00 0.00 0.00 39 1013.0
20260901230954 97 88 2.0 3.0 0.00 0.00 0.00 39 1013.0
20260901230455 96 131 1.0 2.0 0.00 0.00 0.00 41 1013.0
20260901225954 96 92 1.0 2.0 0.00 0.00 0.00 42 1013.0
20260901225455 96 125 1.0 2.0 0.00 0.00 0.00 43 1013.0
20260901224954 96 120 2.0 2.0 0.00 0.00 0.00 41 1013.0
20260901224454 96 89 2.0 4.0 0.00 0.00 0.00 41 1013.0
20260901223955 97 112 2.0 2.0 0.00 0.00 0.00 41 1013.0
20260901223454 98 127 2.0 3.0 0.00 0.00 0.00 40 1013.0
20260901222955 99 99 2.0 4.0 0.00 0.00 0.00 39 1013.0
20260901222455 99 89 2.0 3.0 0.00 0.00 0.00 39 1013.0
20260901221954 99 102 1.0 2.0 0.00 0.00 0.00 40 1013.0
20260901221455 98 83 2.0 2.0 0.00 0.00 0.00 39 1013.0
20260901220954 98 82 1.0 1.0 0.00 0.00 0.00 40 1013.0
20260901220455 97 98 2.0 3.0 0.00 0.00 0.00 40 1013.0
20260901215954 96 128 2.0 3.0 0.00 0.00 0.00 41 1013.0
20260901215455 96 86 1.0 2.0 0.00 0.00 0.00 42 1013.0
20260901214954 97 134 1.0 3.0 0.00 0.00 0.00 42 1013.0
20260901214455 98 88 1.0 2.0 0.00 0.00 0.00 41 1013.0
20260901213955 101 94 2.0 5.0 0.00 0.00 0.00 39 1013.0
20260901213454 101 149 1.0 2.0 0.00 0.00 0.00 38 1013.0
20260901212955 100 144 2.0 2.0 0.00 0.00 0.00 40 1013.0
20260901212455 100 150 2.0 3.0 0.00 0.00 0.00 40 1013.0
20260901211954 100 110 1.0 2.0 0.00 0.00 0.00 39 1013.0
20260901211454 99 162 2.0 3.0 0.00 0.00 0.00 41 1013.0
20260901210955 99 111 2.0 3.0 0.00 0.00 0.00 41 1013.0
20260901210455 98 127 2.0 3.0 0.00 0.00 0.00 41 1013.0
20260901205955 99 90 2.0 3.0 0.00 0.00 0.00 39 1013.0
20260901205459 98 142 1.0 3.0 0.00 0.00 0.00 41 1013.0
20260901204954 98 86 1.0 2.0 0.00 0.00 0.00 41 1013.0
20260901204455 98 98 2.0 4.0 0.00 0.00 0.00 41 1014.0
20260901203955 97 138 1.0 2.0 0.00 0.00 0.00 43 1014.0
20260901203454 96 122 1.0 2.0 0.00 0.00 0.00 45 1014.0
20260901202955 95 82 1.0 3.0 0.00 0.00 0.00 44 1014.0
20260901202455 95 203 2.0 2.0 0.00 0.00 0.00 46 1014.0
20260901201954 96 79 1.0 2.0 0.00 0.00 0.00 45 1014.0
20260901201455 97 109 1.0 3.0 0.00 0.00 0.00 44 1014.0
20260901200955 98 132 2.0 3.0 0.00 0.00 0.00 42 1014.0
20260901200454 98 113 2.0 4.0 0.00 0.00 0.00 42 1014.0
20260901195954 98 140 2.0 2.0 0.00 0.00 0.00 42 1014.0
20260901195455 98 135 2.0 4.0 0.00 0.00 0.00 42 1014.0
20260901194954 98 125 2.0 3.0 0.00 0.00 0.00 42 1014.0
20260901194454 98 82 2.0 3.0 0.00 0.00 0.00 42 1014.0
20260901193956 98 103 2.0 4.0 0.00 0.00 0.00 42 1014.0
20260901193454 97 196 1.0 2.0 0.00 0.00 0.00 46 1014.0
20260901192954 96 143 1.0 3.0 0.00 0.00 0.00 46 1014.0
20260901192455 95 106 1.0 2.0 0.00 0.00 0.00 45 1015.0
20260901191955 95 176 3.0 4.0 0.00 0.00 0.00 45 1015.0
20260901191454 94 336 1.0 2.0 0.00 0.00 0.00 47 1015.0
20260901190955 95 78 1.0 2.0 0.00 0.00 0.00 45 1015.0
20260901190455 96 53 1.0 2.0 0.00 0.00 0.00 44 1015.0
20260901185954 95 132 1.0 2.0 0.00 0.00 0.00 48 1015.0
20260901185454 95 96 0.0 1.0 0.00 0.00 0.00 48 1015.0
20260901184955 96 83 1.0 2.0 0.00 0.00 0.00 46 1015.0
20260901184455 97 126 2.0 3.0 0.00 0.00 0.00 44 1015.0
20260901183954 97 122 1.0 1.0 0.00 0.00 0.00 45 1015.0
20260901183455 96 84 1.0 1.0 0.00 0.00 0.00 47 1015.0
20260901182955 95 131 1.0 2.0 0.00 0.00 0.00 49 1015.0
20260901182455 94 148 0.0 1.0 0.00 0.00 0.00 48 1015.0
20260901181957 94 123 0.0 1.0 0.00 0.00 0.00 49 1016.0
20260901181455 94 115 1.0 2.0 0.00 0.00 0.00 48 1016.0
20260901180954 95 134 2.0 3.0 0.00 0.00 0.00 47 1016.0
20260901180454 95 159 2.0 3.0 0.00 0.00 0.00 48 1016.0
20260901175955 94 92 2.0 2.0 0.00 0.00 0.00 47 1016.0
20260901175454 93 102 2.0 4.0 0.00 0.00 0.00 49 1016.0
20260901174956 94 91 1.0 2.0 0.00 0.00 0.00 49 1016.0
20260901174455 95 238 1.0 2.0 0.00 0.00 0.00 48 1016.0
20260901173955 94 130 1.0 2.0 0.00 0.00 0.00 49 1016.0
20260901173454 94 149 1.0 2.0 0.00 0.00 0.00 51 1016.0
20260901172954 93 115 2.0 3.0 0.00 0.00 0.00 51 1016.0
20260901172455 94 304 2.0 3.0 0.00 0.00 0.00 49 1016.0
20260901171954 94 172 4.0 6.0 0.00 0.00 0.00 50 1016.0
20260901171455 94 83 1.0 2.0 0.00 0.00 0.00 52 1017.0
20260901170954 94 117 1.0 3.0 0.00 0.00 0.00 51 1017.0
20260901170454 93 138 2.0 3.0 0.00 0.00 0.00 52 1017.0
20260901165955 93 165 1.0 3.0 0.00 0.00 0.00 53 1017.0
20260901165455 93 213 2.0 3.0 0.00 0.00 0.00 53 1017.0
20260901164954 93 81 1.0 2.0 0.00 0.00 0.00 52 1017.0
20260901164455 92 210 1.0 2.0 0.00 0.00 0.00 53 1017.0
20260901163956 92 121 0.0 2.0 0.00 0.00 0.00 54 1017.0
20260901163454 92 135 2.0 4.0 0.00 0.00 0.00 53 1017.0
20260901162954 91 217 2.0 4.0 0.00 0.00 0.00 55 1017.0
20260901162454 91 104 1.0 2.0 0.00 0.00 0.00 55 1017.0
20260901161955 91 172 2.0 4.0 0.00 0.00 0.00 56 1017.0
20260901161455 91 203 3.0 5.0 0.00 0.00 0.00 55 1017.0
20260901160956 91 165 2.0 4.0 0.00 0.00 0.00 56 1017.0
20260901160455 91 134 1.0 2.0 0.00 0.00 0.00 60 1017.0
20260901155955 91 140 0.0 1.0 0.00 0.00 0.00 58 1017.0
20260901155456 91 93 0.0 1.0 0.00 0.00 0.00 57 1017.0
20260901154958 91 111 0.0 1.0 0.00 0.00 0.00 60 1017.0
20260901154454 90 76 0.0 1.0 0.00 0.00 0.00 59 1017.0
20260901153955 89 133 0.0 2.0 0.00 0.00 0.00 59 1017.0
20260901153454 89 179 2.0 3.0 0.00 0.00 0.00 60 1017.0
20260901152955 88 130 0.0 1.0 0.00 0.00 0.00 61 1017.0
20260901152456 87 121 0.0 1.0 0.00 0.00 0.00 65 1017.0
20260901151955 87 217 2.0 4.0 0.00 0.00 0.00 65 1017.0
20260901151455 87 235 2.0 4.0 0.00 0.00 0.00 66 1017.0
20260901150955 86 244 1.0 3.0 0.00 0.00 0.00 68 1017.0
20260901150455 86 203 0.0 1.0 0.00 0.00 0.00 70 1017.0
20260901145955 85 335 1.0 2.0 0.00 0.00 0.00 69 1017.0
20260901145455 85 84 1.0 2.0 0.00 0.00 0.00 71 1017.0
20260901144955 84 188 1.0 2.0 0.00 0.00 0.00 73 1017.0
20260901144455 84 248 1.0 2.0 0.00 0.00 0.00 74 1017.0
20260901143954 83 97 0.0 2.0 0.00 0.00 0.00 75 1017.0
20260901143454 83 178 2.0 2.0 0.00 0.00 0.00 76 1017.0
20260901142955 83 183 2.0 2.0 0.00 0.00 0.00 76 1017.0
20260901142456 83 272 2.0 3.0 0.00 0.00 0.00 76 1017.0
20260901141954 82 215 1.0 2.0 0.00 0.00 0.00 78 1017.0
20260901141457 82 165 2.0 3.0 0.00 0.00 0.00 78 1017.0
20260901140955 82 299 1.0 1.0 0.00 0.00 0.00 78 1017.0
20260901140457 81 202 2.0 3.0 0.00 0.00 0.00 80 1018.0
20260901135955 81 195 1.0 2.0 0.00 0.00 0.00 81 1018.0
20260901135455 81 177 1.0 2.0 0.00 0.00 0.00 81 1018.0
20260901134956 80 280 0.0 1.0 0.00 0.00 0.00 82 1018.0
20260901134454 80 220 1.0 2.0 0.00 0.00 0.00 83 1017.0
20260901133955 80 184 0.0 2.0 0.00 0.00 0.00 83 1017.0
20260901133455 80 172 1.0 2.0 0.00 0.00 0.00 84 1017.0
20260901132956 79 190 1.0 2.0 0.00 0.00 0.00 84 1017.0
20260901132455 79 242 0.0 1.0 0.00 0.00 0.00 85 1017.0
20260901131955 79 291 0.0 1.0 0.00 0.00 0.00 85 1017.0
20260901131454 79 190 0.0 0.0 0.00 0.00 0.00 86 1017.0
20260901130955 78 221 0.0 1.0 0.00 0.00 0.00 86 1017.0
20260901130456 78 154 0.0 0.0 0.00 0.00 0.00 86 1017.0
20260901125954 78 193 1.0 2.0 0.00 0.00 0.00 87 1017.0
20260901125505 78 285 0.0 1.0 0.00 0.00 0.00 88 1017.0
20260901124954 77 168 0.0 2.0 0.00 0.00 0.00 88 1017.0
20260901124454 77 49 0.0 1.0 0.00 0.00 0.00 88 1017.0
20260901123954 77 194 0.0 1.0 0.00 0.00 0.00 88 1017.0
20260901123454 77 199 0.0 0.0 0.00 0.00 0.00 88 1017.0
20260901122955 77 360 0.0 0.0 0.00 0.00 0.00 88 1017.0
20260901122454 77 360 0.0 0.0 0.00 0.00 0.00 88 1017.0
20260901121954 77 194 0.0 1.0 0.00 0.00 0.00 88 1017.0
20260901121454 77 360 0.0 0.0 0.00 0.00 0.00 87 1017.0
20260901120954 78 243 0.0 1.0 0.00 0.00 0.00 87 1017.0
20260901120454 78 360 0.0 0.0 0.00 0.00 0.00 87 1017.0
20260901115956 78 360 0.0 0.0 0.00 0.00 0.00 87 1017.0
20260901115455 78 235 0.0 1.0 0.00 0.00 0.00 87 1016.0
20260901114954 78 244 1.0 2.0 0.00 0.00 0.00 87 1016.0
20260901114454 78 245 0.0 1.0 0.00 0.00 0.00 86 1016.0
20260901113955 78 360 0.0 0.0 0.00 0.00 0.00 86 1017.0
20260901113454 78 240 0.0 1.0 0.00 0.00 0.00 86 1017.0
20260901112954 78 319 0.0 0.0 0.00 0.00 0.00 86 1017.0
20260901112455 78 211 1.0 2.0 0.00 0.00 0.00 86 1017.0
20260901111954 78 224 0.0 1.0 0.00 0.00 0.00 85 1017.0
20260901111454 78 242 0.0 2.0 0.00 0.00 0.00 85 1017.0
20260901110954 79 166 1.0 2.0 0.00 0.00 0.00 85 1017.0
20260901110454 79 238 0.0 2.0 0.00 0.00 0.00 84 1017.0
20260901105955 79 190 1.0 2.0 0.00 0.00 0.00 84 1017.0
20260901105013 79 150 1.0 2.0 0.00 0.00 0.00 84 1016.0
20260901104454 79 196 2.0 3.0 0.00 0.00 0.00 84 1016.0
20260901103954 79 191 1.0 2.0 0.00 0.00 0.00 84 1016.0
20260901103456 79 244 2.0 4.0 0.00 0.00 0.00 84 1016.0
20260901102956 79 277 1.0 2.0 0.00 0.00 0.00 84 1016.0
20260901102455 79 278 1.0 2.0 0.00 0.00 0.00 85 1016.0
20260901101956 79 184 0.0 1.0 0.00 0.00 0.00 84 1016.0
20260901101456 79 215 0.0 2.0 0.00 0.00 0.00 84 1016.0
20260901100955 79 178 0.0 1.0 0.00 0.00 0.00 84 1016.0
20260901100454 80 190 0.0 1.0 0.00 0.00 0.00 83 1016.0
20260901095955 80 217 2.0 3.0 0.00 0.00 0.00 83 1016.0
20260901095454 80 163 2.0 4.0 0.00 0.00 0.00 83 1016.0
20260901094954 80 183 2.0 4.0 0.00 0.00 0.00 83 1016.0
20260901094454 80 166 2.0 4.0 0.00 0.00 0.00 83 1016.0
20260901093954 80 176 1.0 2.0 0.00 0.00 0.00 82 1016.0
20260901093454 80 166 2.0 4.0 0.00 0.00 0.00 82 1016.0
20260901092954 80 163 2.0 5.0 0.00 0.00 0.00 82 1016.0
20260901092454 80 206 1.0 2.0 0.00 0.00 0.00 82 1016.0
20260901091955 80 190 1.0 3.0 0.00 0.00 0.00 81 1016.0
20260901091454 80 184 1.0 2.0 0.00 0.00 0.00 81 1016.0
20260901090955 80 196 2.0 4.0 0.00 0.00 0.00 81 1016.0
20260901090454 80 216 1.0 2.0 0.00 0.00 0.00 80 1016.0
20260901085955 80 164 0.0 1.0 0.00 0.00 0.00 80 1016.0
20260901085455 80 170 1.0 3.0 0.00 0.00 0.00 80 1016.0
20260901084954 80 124 0.0 1.0 0.00 0.00 0.00 79 1016.0
20260901084454 80 98 1.0 2.0 0.00 0.00 0.00 79 1016.0
20260901083954 80 126 0.0 2.0 0.00 0.00 0.00 79 1016.0
20260901083455 80 137 0.0 2.0 0.00 0.00 0.00 78 1016.0
20260901082955 80 113 0.0 1.0 0.00 0.00 0.00 78 1016.0
20260901082454 80 134 0.0 2.0 0.00 0.00 0.00 78 1016.0
20260901081955 81 100 1.0 2.0 0.00 0.00 0.00 78 1016.0
20260901081455 81 152 0.0 2.0 0.00 0.00 0.00 77 1016.0
20260901080954 81 166 0.0 2.0 0.00 0.00 0.00 77 1016.0
20260901080454 81 189 0.0 1.0 0.00 0.00 0.00 76 1016.0
20260901075954 81 174 0.0 1.0 0.00 0.00 0.00 76 1016.0
20260901075454 81 183 1.0 2.0 0.00 0.00 0.00 75 1016.0
20260901074958 81 187 1.0 2.0 0.00 0.00 0.00 75 1016.0
20260901074454 82 176 0.0 1.0 0.00 0.00 0.00 74 1016.0
20260901073954 82 162 2.0 3.0 0.00 0.00 0.00 74 1016.0
20260901073454 82 170 2.0 3.0 0.00 0.00 0.00 73 1016.0
20260901072954 82 157 0.0 1.0 0.00 0.00 0.00 73 1016.0
20260901072454 82 174 1.0 2.0 0.00 0.00 0.00 73 1016.0
20260901071954 82 148 1.0 2.0 0.00 0.00 0.00 73 1016.0
20260901071454 82 169 1.0 2.0 0.00 0.00 0.00 73 1016.0
20260901070957 82 217 1.0 1.0 0.00 0.00 0.00 73 1016.0
20260901070454 82 166 0.0 2.0 0.00 0.00 0.00 73 1016.0
20260901065954 82 45 0.0 1.0 0.00 0.00 0.00 73 1016.0
20260901065455 82 166 0.0 2.0 0.00 0.00 0.00 74 1016.0
20260901064954 82 129 1.0 2.0 0.00 0.00 0.00 74 1016.0
20260901064457 82 152 1.0 2.0 0.00 0.00 0.00 74 1016.0
20260901063954 83 177 1.0 2.0 0.00 0.00 0.00 73 1016.0
20260901063454 83 184 1.0 3.0 0.00 0.00 0.00 73 1016.0
20260901062954 83 136 1.0 2.0 0.00 0.00 0.00 72 1016.0
20260901062454 83 122 0.0 1.0 0.00 0.00 0.00 72 1016.0
20260901061954 83 126 1.0 3.0 0.00 0.00 0.00 71 1016.0
20260901061455 83 176 1.0 4.0 0.00 0.00 0.00 71 1016.0
20260901060954 83 173 2.0 4.0 0.00 0.00 0.00 70 1016.0
20260901060454 83 147 1.0 3.0 0.00 0.00 0.00 70 1016.0
20260901055954 83 157 1.0 3.0 0.00 0.00 0.00 69 1016.0
20260901055454 83 95 1.0 2.0 0.00 0.00 0.00 69 1016.0
20260901054954 84 180 3.0 7.0 0.00 0.00 0.00 68 1016.0
20260901054455 84 162 2.0 4.0 0.00 0.00 0.00 67 1016.0
20260901054002 84 115 2.0 3.0 0.00 0.00 0.00 67 1016.0
20260901053455 84 129 1.0 2.0 0.00 0.00 0.00 66 1016.0
20260901052954 84 149 1.0 2.0 0.00 0.00 0.00 66 1016.0
20260901052455 84 151 2.0 4.0 0.00 0.00 0.00 65 1016.0
20260901051955 85 119 2.0 3.0 0.00 0.00 0.00 65 1016.0
20260901051454 85 201 2.0 4.0 0.00 0.00 0.00 65 1016.0
20260901050955 85 153 1.0 2.0 0.00 0.00 0.00 65 1016.0
20260901050455 85 142 2.0 3.0 0.00 0.00 0.00 65 1016.0
20260901045954 85 181 2.0 4.0 0.00 0.00 0.00 65 1015.0
20260901045454 85 178 2.0 4.0 0.00 0.00 0.00 64 1015.0
20260901044954 85 182 3.0 6.0 0.00 0.00 0.00 64 1015.0
20260901044459 85 139 1.0 3.0 0.00 0.00 0.00 63 1015.0
20260901043954 85 129 1.0 2.0 0.00 0.00 0.00 63 1015.0
20260901043454 86 134 2.0 4.0 0.00 0.00 0.00 63 1015.0
20260901042955 86 101 1.0 2.0 0.00 0.00 0.00 62 1015.0
20260901042455 86 123 2.0 5.0 0.00 0.00 0.00 62 1015.0
20260901041955 86 113 1.0 1.0 0.00 0.00 0.00 62 1015.0
20260901041457 86 125 2.0 4.0 0.00 0.00 0.00 61 1015.0
20260901040954 86 107 1.0 4.0 0.00 0.00 0.00 61 1015.0
20260901040454 86 107 2.0 3.0 0.00 0.00 0.00 60 1015.0